Location: New Town
(33.2710°N, 90.7534°W)
Time: 12:58:01
(UTC+00:00)

Explorer 11/Cluster Stage 4 - Pass Details

Date: 18 May 2021
Orbit: 467 x 1257 km, 28.8° (Epoch: 14 June)

Event Time Altitude Azimuth Distance (km) Brightness Sun altitude
Rises 00:59:07 0° 250° (WSW) 3,811 10.9 -1.1°
Reaches altitude 10° 01:01:45 10° 246° (WSW) 2,954 10.2 -1.6°
Maximum altitude 01:09:06 58° 169° (S) 1,390 7.7 -3.0°
Drops below altitude 10° 01:17:09 10° 94° (E) 3,229 9.1 -4.5°
Enters shadow 01:19:44 - 91° (E) 4,058 9.7 -5.0°
Sets 01:20:08 0° 90° (E) 4,187 - -5.0°
